[[{"header":{"parameterUnit":"m.s-1","parameterCategory":1,"la1":30.2991,"la2":30.254,"lo1":-89.0895,"lo2":-89.0444,"dy":0.0017,"dx":0.0017,"nx":28,"ny":28,"refTime":"2024-05-01T09:00:00:Z","depth":0,"parameterNumber":2,"parameterNumberName":"U-component_of_WINDS"},"data":[0,0,0,0,0,0,0,0,0,0,0,0,0,0,0,0,0,0,0,0,0,0,0,0,0,0,0,0,0,0,0,0,0,0,0,0,0,0,0,0,0,0,0,0,0,0,0,0,0,0,0,0,0,0,0,0,0,0,-1.9294,-1.9292,0,-1.919,-1.9189,-1.9188,-1.9091,-1.909,-1.9089,-1.9088,-1.8978,-1.8977,-1.8975,0,0,0,0,0,0,0,0,0,0,0,0,0,-1.9405,-1.9404,-1.9294,-1.9292,-1.9291,-1.919,-1.9189,-1.9188,-1.9091,-1.909,-1.9088,-1.9087,-1.8979,-1.8977,-1.8975,0,0,0,0,0,0,0,0,0,0,0,0,0,-1.9335,-1.9403,-1.9294,-1.9231,-1.9224,-1.9191,-1.9189,-1.9187,-1.9092,-1.909,-1.9088,-1.9086,-1.898,-1.8977,-1.8974,-1.8994,0,0,-1.8966,-1.8965,0,0,0,0,0,0,0,0,-1.9339,-1.9331,-1.9241,-1.9235,-1.9228,-1.9152,-1.9188,-1.9122,-1.9092,-1.9142,-1.9088,-1.9085,-1.9037,-1.903,-1.9014,-1.8989,-1.8984,-1.8966,-1.8964,-1.8963,-1.8962,0,0,0,0,0,0,0,-1.9344,-1.9335,-1.9253,-1.924,-1.9232,-1.9207,-1.9195,-1.9175,-1.9101,-1.9137,-1.913,-1.9119,-1.9033,-1.9017,-1.9011,-1.8982,-1.8966,-1.8964,-1.8962,-1.8961,-1.8968,-1.8969,0,0,0,0,0,0,-1.9359,-1.9339,-1.9256,-1.9249,-1.928,-1.9207,-1.9193,-1.9178,-1.9101,-1.9087,-1.9121,-1.9115,-1.9023,-1.9014,-1.9007,-1.9024,-1.8963,-1.8961,-1.8959,-1.8966,-1.8968,-1.897,0,0,0,0,0,0,-1.9362,-1.9352,-1.926,-1.9292,-1.9279,-1.9207,-1.919,-1.9177,-1.9161,-1.9088,-1.9074,-1.9118,-1.9021,-1.901,-1.8998,-1.9019,-1.8959,-1.8957,-1.8964,-1.8966,-1.8969,-1.906,0,0,0,0,0,0,-1.9365,-1.9354,-1.9361,-1.9293,-1.9278,-1.9254,-1.9192,-1.9176,-1.9157,-1.9148,-1.9082,-1.907,-1.9019,-1.9003,-1.8995,-1.9014,-1.8955,-1.8961,-1.8965,-1.8968,-1.9054,-1.9065,-1.9074,0,0,0,0,0,-1.937,-1.939,-1.9362,-1.9352,-1.9285,-1.9255,-1.9246,-1.9188,-1.9159,-1.9165,-1.9119,-1.9072,-1.9018,-1.9002,-1.8993,-1.9012,-1.896,-1.8964,-1.8968,-1.905,-1.9063,-1.9074,0,0,0,0,0,0,-1.946,-1.938,-1.9348,-1.9347,-1.9309,-1.9239,-1.9245,-1.9204,-1.9172,-1.9165,-1.9094,-1.908,-1.9075,-1.9042,-1.9025,-1.9026,-1.8983,-1.8985,-1.9048,-1.906,-1.907,-1.9077,-1.8953,0,0,0,0,0,-1.948,-1.9464,-1.9394,-1.94,-1.9383,-1.9318,-1.9302,-1.9261,-1.9218,-1.9202,-1.9154,-1.9114,-1.9088,-1.9072,-1.9044,-1.905,-1.9034,-1.9058,-1.9068,-1.9076,-1.9079,-1.9079,-1.9089,-1.8983,-1.8983,-1.8983,0,0,-1.9521,-1.9475,-1.9468,-1.9417,-1.9382,-1.9367,-1.9304,-1.929,-1.9277,-1.9199,-1.9184,-1.9149,-1.9099,-1.9096,-1.9092,-1.9068,-1.9105,-1.9082,-1.9089,-1.9087,-1.9085,-1.9095,-1.9104,-1.8986,-1.8985,-1.8985,0,0,-1.9586,-1.9551,-1.9552,-1.9519,-1.9469,-1.9426,-1.9426,-1.9363,-1.9337,-1.9322,-1.9263,-1.9246,-1.9203,-1.917,-1.9148,-1.9204,-1.9159,-1.9197,-1.9248,-1.9249,-1.9257,-1.9265,-1.9284,-1.9292,-1.92,-1.92,-1.92,0,-1.9643,-1.9617,-1.9557,-1.9546,-1.9525,-1.9456,-1.9456,-1.9427,-1.937,-1.9357,-1.9331,-1.9277,-1.9238,-1.9226,-1.924,-1.9225,-1.9222,-1.9203,-1.9261,-1.9268,-1.9273,-1.9291,-1.9299,-1.9205,-1.9204,-1.9204,-1.9203,0,-1.9689,-1.9673,-1.9679,-1.9628,-1.9607,-1.9602,-1.9541,-1.9528,-1.9489,-1.9448,-1.9434,-1.9386,-1.9347,-1.9342,-1.9303,-1.9325,-1.9311,-1.9275,-1.9229,-1.929,-1.9305,-1.9311,-1.9212,-1.921,-1.9208,-1.9207,0,0,-1.9807,-1.9724,-1.9727,-1.9703,-1.9643,-1.9629,-1.9621,-1.9584,-1.9574,-1.9538,-1.9529,-1.9495,-1.9461,-1.9436,-1.9393,-1.9395,-1.9442,-1.9358,-1.9355,-1.9374,-1.9463,-1.949,-1.9499,-1.9413,-1.9414,-1.9415,-1.9467,0,-1.9862,-1.9845,-1.9791,-1.979,-1.9773,-1.9708,-1.9701,-1.9663,-1.9626,-1.9606,-1.9564,-1.9541,-1.9499,-1.9483,-1.9482,-1.9437,-1.9459,-1.9432,-1.9403,-1.9402,-1.9416,-1.9507,-1.9535,-1.9587,-1.9472,-1.9473,-1.9474,0,-1.9924,-1.9893,-1.9891,-1.9833,-1.9824,-1.9818,-1.9781,-1.9764,-1.972,-1.9692,-1.9666,-1.9619,-1.9606,-1.9565,-1.9547,-1.953,-1.9515,-1.9491,-1.9492,-1.9486,-1.9441,-1.9503,-1.9602,-1.9609,-1.9483,-1.9482,-1.9482,0,-2.001,-1.9968,-1.9961,-1.9942,-1.9874,-1.9872,-1.9844,-1.9798,-1.978,-1.9748,-1.9735,-1.9702,-1.9683,-1.9658,-1.9603,-1.9578,-1.959,-1.9545,-1.9566,-1.9568,-1.9571,-1.9571,-1.9668,-1.9563,-1.9563,-1.9563,-1.9563,0,-2.0077,-2.0078,-1.9999,-1.9994,-1.9993,-1.9932,-1.9932,-1.9898,-1.9858,-1.9845,-1.9787,-1.9776,-1.9704,-1.9685,-1.9642,-1.9634,-1.9626,-1.9603,-1.9591,-1.9607,-1.961,-1.9595,-1.959,-1.9565,-1.9564,-1.9564,-1.9564,0,-2.0172,-2.0119,-2.0107,-2.0045,-2.0029,-2.0031,-1.9977,-1.997,-1.993,-1.9915,-1.9908,-1.9844,-1.9819,-1.9762,-1.9721,-1.9692,-1.9694,-1.9673,-1.9709,-1.9702,-1.9727,-1.9725,-1.9816,-1.9825,-1.9716,-1.9717,-1.9718,0,-2.0218,-2.0217,-2.0155,-2.0143,-2.0117,-2.0098,-2.008,-2.002,-2.0003,-1.9954,-1.9953,-1.9924,-1.9896,-1.9859,-1.9809,-1.9777,-1.9755,-1.9789,-1.9749,-1.9766,-1.9754,-1.9755,-1.9754,-1.9798,-1.9799,-1.98,-1.9801,0,-2.0304,-2.0279,-2.0255,-2.0223,-2.0204,-2.0175,-2.0143,-2.0137,-2.0068,-2.0053,-2.0027,-2.0006,-1.9965,-1.9936,-1.9898,-1.9867,-1.9823,-1.9815,-1.9818,-1.9834,-1.9855,-1.9843,-1.9732,-1.9812,-1.9811,-1.981,-1.981,-1.9809,-2.0375,-2.0372,-2.0328,-2.0304,-2.0275,-2.0247,-2.0237,-2.0197,-2.0174,-2.0137,-2.0103,-2.0081,-2.0037,-1.9981,-1.9953,-1.9934,-1.9912,-1.9917,-1.9918,-1.992,-1.9927,-1.9859,-1.9927,-1.9927,-1.9926,-1.9926,-1.9926,0,-2.0459,-2.0428,-2.0407,-2.0365,-2.0346,-2.0308,-2.0271,-2.0258,-2.0239,-2.0203,-2.0178,-2.0149,-2.0121,-2.0069,-2.0037,-2.0031,-2.001,-2.0025,-2.0024,-2.0018,-1.9949,-1.9949,-2.0043,-2.0043,-2.0042,-2.0042,-2.0042,-2.0042,-2.05,-2.0492,-2.0462,-2.0439,-2.0407,-2.0386,-2.0368,-2.0342,-2.0313,-2.0283,-2.026,-2.0227,-2.0184,-2.0149,-2.0121,-2.0107,-2.0097,-2.0118,-2.0097,-2.0034,-2.0023,-2.0012,-2.0012,-2.0117,-2.0117,-2.0168,-2.0168,-2.0168]},{"header":{"parameterUnit":"m.s-1","parameterCategory":1,"la1":30.2991,"la2":30.254,"lo1":-89.0895,"lo2":-89.0444,"dy":0.0017,"dx":0.0017,"nx":28,"ny":28,"refTime":"2024-05-01T09:00:00:Z","depth":0,"parameterNumber":3,"parameterNumberName":"V-component_of_WINDS"},"data":[0,0,0,0,0,0,0,0,0,0,0,0,0,0,0,0,0,0,0,0,0,0,0,0,0,0,0,0,0,0,0,0,0,0,0,0,0,0,0,0,0,0,0,0,0,0,0,0,0,0,0,0,0,0,0,0,0,0,2.8089,2.809,0,2.8104,2.8104,2.8104,2.8125,2.8126,2.8126,2.8126,2.8137,2.8137,2.8137,0,0,0,0,0,0,0,0,0,0,0,0,0,2.8078,2.8078,2.8089,2.809,2.809,2.8104,2.8104,2.8104,2.8125,2.8126,2.8126,2.8127,2.8137,2.8137,2.8137,0,0,0,0,0,0,0,0,0,0,0,0,0,2.8086,2.8078,2.8089,2.8102,2.8103,2.8104,2.8104,2.8104,2.8125,2.8126,2.8126,2.8127,2.8137,2.8137,2.8137,2.8125,0,0,2.8137,2.8137,0,0,0,0,0,0,0,0,2.8086,2.8087,2.81,2.8101,2.8103,2.8113,2.8104,2.8111,2.8125,2.8117,2.8126,2.8127,2.8129,2.8129,2.8131,2.8125,2.8126,2.8137,2.8137,2.8137,2.8137,0,0,0,0,0,0,0,2.8085,2.8086,2.8095,2.81,2.8102,2.8106,2.8108,2.8105,2.8119,2.8118,2.8119,2.8121,2.8129,2.8131,2.8131,2.8126,2.8137,2.8137,2.8137,2.8137,2.8113,2.8112,0,0,0,0,0,0,2.8083,2.8086,2.8095,2.8095,2.8096,2.8106,2.8108,2.8109,2.8119,2.8121,2.812,2.8122,2.8131,2.8131,2.8131,2.8119,2.8137,2.8137,2.8137,2.8113,2.8113,2.8112,0,0,0,0,0,0,2.8083,2.8084,2.8094,2.8091,2.8093,2.8106,2.8107,2.8109,2.8111,2.8121,2.8124,2.8119,2.8131,2.8132,2.8127,2.8119,2.8137,2.8136,2.8114,2.8113,2.8112,2.8092,0,0,0,0,0,0,2.8082,2.8084,2.808,2.8091,2.8093,2.809,2.8106,2.8109,2.8111,2.8113,2.8121,2.8123,2.8132,2.8127,2.8127,2.8119,2.8136,2.8115,2.8114,2.8113,2.8094,2.8091,2.8088,0,0,0,0,0,2.8082,2.8072,2.8079,2.808,2.8088,2.8089,2.809,2.8102,2.811,2.8106,2.8113,2.8122,2.812,2.8126,2.8126,2.8119,2.8115,2.8114,2.8113,2.8095,2.8091,2.8088,0,0,0,0,0,0,2.8058,2.8074,2.8082,2.8076,2.8081,2.8093,2.8088,2.8098,2.81,2.8101,2.8114,2.8116,2.811,2.8114,2.812,2.8108,2.8119,2.8118,2.8106,2.8102,2.81,2.8099,2.8136,0,0,0,0,0,2.8053,2.8053,2.8067,2.806,2.8062,2.8075,2.8076,2.8084,2.809,2.8092,2.8099,2.8103,2.8103,2.8103,2.8104,2.8094,2.8097,2.8089,2.8087,2.8084,2.8083,2.8079,2.8076,2.8108,2.8108,2.8108,0,0,2.804,2.8049,2.8048,2.8055,2.8061,2.806,2.8077,2.8075,2.8075,2.8091,2.8088,2.8093,2.8099,2.8092,2.8089,2.8095,2.8075,2.8083,2.8081,2.8081,2.8077,2.8074,2.8072,2.8107,2.8107,2.8107,0,0,2.8018,2.8025,2.802,2.8026,2.8034,2.8043,2.8042,2.8053,2.8057,2.8054,2.8067,2.8066,2.8066,2.807,2.8072,2.8052,2.8061,2.8052,2.8038,2.8034,2.8032,2.803,2.8023,2.802,2.8051,2.8051,2.8051,0,2.8001,2.8003,2.8017,2.8015,2.8018,2.8034,2.803,2.8034,2.8042,2.8043,2.805,2.8051,2.8056,2.8051,2.8046,2.8047,2.8046,2.8051,2.8031,2.8029,2.8027,2.8021,2.8019,2.805,2.805,2.805,2.805,0,2.7982,2.7983,2.7978,2.7987,2.7989,2.7986,2.7999,2.7999,2.8008,2.8015,2.8012,2.8019,2.8022,2.8021,2.8029,2.8017,2.8021,2.8029,2.8041,2.8023,2.8017,2.8015,2.8048,2.8048,2.8049,2.8049,0,0,2.7944,2.7962,2.796,2.7965,2.7976,2.7976,2.7974,2.7978,2.7979,2.7983,2.7982,2.7982,2.7991,2.7993,2.8001,2.7997,2.7982,2.8006,2.8007,2.8002,2.797,2.7964,2.7961,2.7988,2.7988,2.7988,2.797,0,2.7924,2.7923,2.7936,2.793,2.7931,2.7947,2.7945,2.7951,2.7959,2.796,2.7967,2.7968,2.7978,2.798,2.7977,2.7985,2.7976,2.7986,2.7986,2.7986,2.7984,2.7958,2.7951,2.7934,2.7968,2.7967,2.7967,0,2.7901,2.7906,2.7901,2.7914,2.7915,2.7913,2.7918,2.7919,2.7927,2.7932,2.7935,2.7945,2.7943,2.7955,2.7952,2.7959,2.7959,2.7963,2.7963,2.7963,2.7975,2.7957,2.7928,2.7926,2.7964,2.7964,2.7964,0,2.7874,2.788,2.7878,2.7882,2.7896,2.7895,2.79,2.7908,2.791,2.7915,2.7916,2.792,2.7922,2.7924,2.7934,2.7942,2.793,2.7943,2.7935,2.7934,2.7931,2.7931,2.7902,2.7932,2.7932,2.7932,2.7932,0,2.7851,2.7847,2.7867,2.7866,2.7862,2.7877,2.7873,2.788,2.7887,2.7887,2.7901,2.79,2.7914,2.7915,2.7923,2.792,2.792,2.7924,2.7926,2.7923,2.7923,2.7924,2.7925,2.7931,2.7931,2.7931,2.7931,0,2.7821,2.7834,2.7833,2.7847,2.7851,2.7848,2.7859,2.7858,2.7867,2.7867,2.7868,2.788,2.7882,2.7893,2.7897,2.7903,2.7896,2.7901,2.7894,2.7896,2.7887,2.7888,2.7858,2.7855,2.7886,2.7886,2.7885,0,2.7805,2.7803,2.7817,2.7819,2.7825,2.7827,2.783,2.7844,2.7846,2.7855,2.7853,2.7856,2.786,2.7862,2.7871,2.7874,2.7878,2.7868,2.7879,2.7876,2.7879,2.7879,2.7879,2.7865,2.7865,2.7864,2.7864,0,2.7775,2.7783,2.7787,2.7794,2.7797,2.7802,2.7809,2.7809,2.7825,2.7826,2.7829,2.7832,2.7837,2.784,2.7845,2.7849,2.7859,2.7861,2.7859,2.7856,2.7852,2.7854,2.7888,2.7861,2.7861,2.7862,2.7862,2.7862,2.7752,2.7752,2.7762,2.7767,2.7773,2.7779,2.7779,2.7789,2.7792,2.7798,2.7806,2.7808,2.7815,2.7823,2.7828,2.7829,2.7834,2.7832,2.7831,2.783,2.7829,2.7852,2.7829,2.783,2.783,2.783,2.783,0,2.7724,2.7732,2.7736,2.7746,2.7749,2.776,2.7767,2.7769,2.7771,2.7778,2.7782,2.7785,2.7788,2.7798,2.7802,2.7801,2.7806,2.7802,2.7802,2.7803,2.7823,2.7825,2.7798,2.7798,2.7798,2.7798,2.7798,2.7798,2.771,2.771,2.7718,2.7721,2.7729,2.7732,2.7736,2.7741,2.7747,2.775,2.7754,2.7761,2.7769,2.7774,2.7777,2.778,2.7781,2.7775,2.7779,2.7798,2.7801,2.7804,2.7805,2.7775,2.7775,2.7759,2.7759,2.7758]}]]